Carver, MA

7:06 PM EST on February 08, 2016 (GMT -0500)
Plymouth Municipal

Weather History for KPYM - September, 2014

Change the Weather History Date:

Thursday, September 11, 2014

  Actual Average Record
Temperature  
Mean Temperature 68 °F -  
Max Temperature 78 °F 75 °F 95 °F (1989)
Min Temperature 57 °F 53 °F 42 °F (1975)
Cooling Degree Days 2    
Growing Degree Days 18 (Base 50)    
Moisture  
Dew Point 61 °F    
Average Humidity 78    
Maximum Humidity 94    
Minimum Humidity 59    
Precipitation  
Precipitation 0.00 in - - ()
Sea Level Pressure  
Sea Level Pressure 29.92 in    
Wind  
Wind Speed 5 mph (SSW)    
Max Wind Speed 18 mph    
Max Gust Speed 28 mph    
Visibility 10 miles    
Events      
Averages and records for this station are not official NWS values.
T = Trace of Precipitation, MM = Missing Value Source: NWS Daily Summary

Daily Weather History Graph

Daily Weather History Graph

Search for Another Location

Airport or City:

Trip Planner

Search our weather history database for the weather conditions in past years. The results will help you decide how hot, cold, wet, or windy it might be!

Date:

Astronomy

Sep. 11, 2014 Rise Set
Actual Time 6:18 AM EDT 6:59 PM EDT
Civil Twilight 5:50 AM EDT 7:27 PM EDT
Nautical Twilight 5:17 AM EDT 8:00 PM EDT
Astronomical Twilight 4:42 AM EDT 8:35 PM EDT
Moon 8:32 PM EDT (9/11) 9:15 AM EDT (9/11)
Length of Visible Light 13h 36m
Length of Day
12h 40m
Waning Gibbous, 91% of the Moon is Illuminated
Sep 11
Waning Gibbous
Sep 15
Last Quarter
Sep 24
New
Oct 1
First Quarter
Oct 8
Full

Hourly Weather History & Observations

Time (EDT) Temp. Dew Point Humidity Pressure Visibility Wind Dir Wind Speed Gust Speed Precip Events Conditions
12:52 AM 60.1 °F 57.0 °F 90% 30.05 in 10.0 mi Calm Calm - N/A   Clear
1:10 AM 57.0 °F 54.0 °F 89% 30.04 in 1.2 mi Calm Calm - N/A   Partly Cloudy
1:21 AM 60.1 °F 57.0 °F 90% 30.04 in 5.0 mi Calm Calm - N/A   Partly Cloudy
1:52 AM 60.1 °F 57.0 °F 90% 30.03 in 10.0 mi Calm Calm - N/A   Overcast
2:20 AM 60.1 °F 57.0 °F 90% 30.02 in 10.0 mi Calm Calm - N/A   Overcast
2:52 AM 62.1 °F 57.9 °F 86% 30.02 in 10.0 mi Calm Calm - N/A   Overcast
3:52 AM 63.0 °F 57.9 °F 84% 30.01 in 10.0 mi Calm Calm - N/A   Overcast
4:52 AM 60.1 °F 57.0 °F 90% 30.01 in 10.0 mi SW 3.5 mph - N/A   Mostly Cloudy
5:20 AM 60.1 °F 57.0 °F 90% 30.01 in 10.0 mi Calm Calm - N/A   Mostly Cloudy
5:44 AM 61.0 °F 57.0 °F 87% 30.00 in 10.0 mi Calm Calm - N/A   Overcast
5:52 AM 61.0 °F 57.0 °F 87% 30.00 in 10.0 mi Calm Calm - N/A   Overcast
6:50 AM 59.0 °F 57.2 °F 94% 30.00 in 9.0 mi SE 3.5 mph - N/A   Mostly Cloudy
7:52 AM 63.0 °F 57.9 °F 84% 29.97 in 10.0 mi Variable 4.6 mph - N/A   Mostly Cloudy
8:02 AM 63.0 °F 59.0 °F 87% 29.97 in 10.0 mi SSE 4.6 mph - N/A   Overcast
8:28 AM 64.9 °F 59.0 °F 81% 29.98 in 10.0 mi Variable 5.8 mph - N/A   Scattered Clouds
8:52 AM 66.9 °F 57.9 °F 73% 29.98 in 10.0 mi Variable 6.9 mph - N/A   Scattered Clouds
9:52 AM 70.0 °F 57.0 °F 63% 29.96 in 10.0 mi South 9.2 mph 17.3 mph N/A   Clear
10:52 AM 72.0 °F 57.0 °F 59% 29.93 in 10.0 mi South 10.4 mph - N/A   Clear
11:52 AM 72.0 °F 57.9 °F 61% 29.91 in 10.0 mi SSW 10.4 mph - N/A   Scattered Clouds
12:15 PM 73.0 °F 60.1 °F 64% 29.90 in 10.0 mi South 13.8 mph 23.0 mph N/A   Mostly Cloudy
12:52 PM 72.0 °F 60.1 °F 66% 29.89 in 10.0 mi SSW 16.1 mph 26.5 mph N/A   Mostly Cloudy
1:04 PM 73.0 °F 61.0 °F 66% 29.88 in 10.0 mi SSW 13.8 mph - N/A   Mostly Cloudy
1:16 PM 72.0 °F 61.0 °F 68% 29.88 in 10.0 mi SSW 13.8 mph 23.0 mph N/A   Mostly Cloudy
1:52 PM 73.9 °F 62.1 °F 66% 29.87 in 10.0 mi SSW 12.7 mph 24.2 mph N/A   Mostly Cloudy
2:25 PM 75.0 °F 62.1 °F 64% 29.85 in 10.0 mi SSW 17.3 mph 25.3 mph N/A   Scattered Clouds
2:52 PM 75.9 °F 63.0 °F 64% 29.85 in 10.0 mi SSW 16.1 mph 24.2 mph N/A   Scattered Clouds
3:05 PM 77.0 °F 64.0 °F 64% 29.84 in 10.0 mi SSW 17.3 mph 26.5 mph N/A   Mostly Cloudy
3:32 PM 78.1 °F 63.0 °F 60% 29.83 in 10.0 mi SW 13.8 mph 27.6 mph N/A   Scattered Clouds
4:52 PM 75.9 °F 64.0 °F 67% 29.82 in 10.0 mi SSW 18.4 mph 24.2 mph N/A   Scattered Clouds
5:36 PM 73.9 °F 64.0 °F 71% 29.82 in 10.0 mi SW 13.8 mph 21.9 mph N/A   Mostly Cloudy
5:52 PM 73.9 °F 64.0 °F 71% 29.83 in 10.0 mi SW 15.0 mph 25.3 mph N/A   Mostly Cloudy
6:43 PM 73.0 °F 64.9 °F 76% 29.82 in 10.0 mi SW 12.7 mph - N/A   Scattered Clouds
6:52 PM 72.0 °F 64.9 °F 78% 29.82 in 10.0 mi SSW 11.5 mph - N/A   Partly Cloudy
7:52 PM 72.0 °F 64.9 °F 78% 29.83 in 10.0 mi SSW 6.9 mph - N/A   Clear
8:39 PM 71.1 °F 66.0 °F 84% 29.85 in 10.0 mi SW 5.8 mph - N/A   Mostly Cloudy
8:52 PM 71.1 °F 66.0 °F 84% 29.85 in 10.0 mi SSW 5.8 mph - N/A   Mostly Cloudy
9:09 PM 71.1 °F 66.0 °F 84% 29.85 in 10.0 mi SSW 6.9 mph - N/A   Scattered Clouds
9:52 PM 70.0 °F 66.0 °F 87% 29.86 in 10.0 mi SSW 4.6 mph - N/A   Clear
10:52 PM 69.1 °F 66.0 °F 90% 29.87 in 9.0 mi SW 4.6 mph - N/A   Partly Cloudy
11:48 PM 69.8 °F 66.2 °F 88% 29.88 in 8.0 mi WSW 5.8 mph - N/A   Mostly Cloudy
11:52 PM 69.1 °F 66.0 °F 90% 29.89 in 8.0 mi West 4.6 mph - N/A   Mostly Cloudy